WY7ATH-2 Weather Reports


time (UTC)temp
F
wind
direction
speed
knots
gust
knots
rain 1hr
in
rain 24hr
in
rain mn
in
humidity
%
barometer
mb
20260906212806 79 359 0.0 0.0 0.17 7.07 5.17
20260906205815 78 359 0.0 0.0 0.39 7.07 4.99
20260906204814 79 163 2.6 0.0 0.39 7.07 4.93
20260906202820 80 190 0.0 0.0 0.39 7.07 4.89
20260906201823 81 141 0.9 0.0 0.39 7.07 4.87
20260906194828 83 190 0.9 0.0 0.72 7.07 4.77
20260906192834 80 141 0.9 6.1 0.72 7.07 4.63
20260906190840 84 152 0.0 0.0 0.72 7.07 4.53
20260906185843 84 152 2.6 0.0 0.77 7.07 4.42
20260906184842 82 239 4.3 0.0 0.77 7.07 4.31
20260906183845 85 149 4.3 9.6 0.77 7.07 4.22
20260906182849 89 166 0.9 7.8 0.77 7.07 4.11
20260906181851 91 100 0.0 0.0 0.77 7.07 3.98
20260906171907 82 111 1.7 0.0 0.93 7.07 3.25
20260906170251 82 346 0.0 0.0 0.87 7.07 2.93
20260906165912 82 346 0.0 0.0 0.87 7.07 2.93
20260906164912 82 69 0.0 0.0 0.87 7.07 2.77
20260906163913 80 69 0.0 0.0 0.87 7.07 2.61
20260906162917 79 90 0.9 0.0 0.87 7.07 2.46
20260906162000 79 83 1.7 0.0 0.87 7.07 2.31
20260906161925 79 83 1.7 0.0 0.87 7.07 2.31
20260906155925 79 34 2.6 0.0 0.73 7.07 2.00
20260906154933 76 204 0.0 0.0 0.73 7.07 1.85
20260906153927 77 204 0.0 0.0 0.73 7.07 1.70
20260906152138 80 204 0.0 0.0 0.73 7.07 1.41
20260906151932 80 204 0.0 0.0 0.73 7.07 1.41
20260906150938 80 204 0.0 0.0 0.73 7.07 1.27
20260906145937 78 204 0.0 0.0 0.39 7.07 1.14
20260906144936 77 204 0.0 0.0 0.39 7.07 1.00
20260906142943 69 204 0.0 0.0 0.39 7.07 0.75
20260906141946 70 204 0.0 0.0 0.39 7.07 0.63
20260906135952 66 283 0.0 3.5 0.03 7.07 0.42
20260906133954 62 193 0.0 0.0 0.03 7.07 0.26
20260906132957 63 193 0.0 0.0 0.03 7.07 0.19
20260906132125 60 191 0.9 0.0 0.03 7.07 0.12
20260906132000 60 191 0.9 0.0 0.03 7.07 0.12
20260906125003 54 249 0.0 0.0 0.00 7.07 0.01
20260906124006 54 249 0.0 0.0 0.00 7.07 0.00
20260906123010 54 219 0.9 0.0 0.00 7.07 0.00
20260906115134 55 231 7.0 8.7 0.00 7.07 0.00
20260906115016 55 231 7.0 8.7 0.00 7.07 0.00
20260906113023 54 236 5.2 4.3 0.00 7.07 0.00
20260906105031 55 278 0.0 0.0 0.00 7.07 0.00
20260906104034 56 238 0.0 0.0 0.00 7.07 0.00
20260906102041 55 238 0.0 0.0 0.00 7.07 0.00
20260906101043 53 238 0.0 0.0 0.00 7.07 0.00
20260906100048 53 238 0.0 0.0 0.00 7.07 0.00
20260906095046 53 238 0.0 0.0 0.00 7.07 0.00
20260906094049 53 238 0.0 0.0 0.00 7.07 0.00
20260906093052 53 267 0.0 0.0 0.00 7.07 0.00
20260906084103 55 240 0.0 0.0 0.00 7.07 0.00
20260906082109 54 235 2.6 0.0 0.00 7.07 0.00
20260906080116 53 256 0.0 0.0 0.00 7.07 0.00
20260906075115 53 56 0.0 0.0 0.00 7.07 0.00
20260906073121 54 56 0.0 0.0 0.00 7.07 0.00
20260906072449 56 56 0.0 0.0 0.00 7.07 0.00
20260906072123 56 56 0.0 0.0 0.00 7.07 0.00
20260906071128 56 56 0.0 0.0 0.00 7.07 0.00
20260906070130 57 56 0.0 0.0 0.00 7.07 0.00
20260906065131 56 56 0.0 0.0 0.00 7.07 0.00
20260906064132 57 56 0.0 0.0 0.00 7.07 0.00
20260906062139 57 56 0.0 0.0 0.00 7.07 0.00
20260906061142 58 56 0.0 0.0 0.00 7.07 0.00
20260906060145 57 56 0.0 0.0 0.00 7.07 0.00
20260906054147 57 56 0.0 0.0 0.00 2.87 7.07
20260906053150 57 56 0.0 0.0 0.00 2.87 7.07
20260906052153 58 56 0.0 0.0 0.00 2.87 7.07
20260906051156 57 56 0.0 0.0 0.00 2.87 7.07
20260906050159 58 56 0.0 0.0 0.00 2.87 7.07
20260906045159 58 56 0.0 0.0 0.00 2.87 7.07
20260906044202 59 56 0.0 0.0 0.00 2.87 7.07
20260906043205 58 56 0.0 0.0 0.00 2.87 7.07
20260906042209 58 56 0.0 0.0 0.00 2.87 7.07
20260906041211 60 56 0.0 0.0 0.00 2.87 7.07
20260906034216 62 56 0.0 0.0 0.00 2.87 7.07
20260906033219 63 56 0.0 0.0 0.00 2.87 7.07
20260906031227 64 7 0.0 0.0 0.00 2.87 7.07
20260906022240 67 7 0.0 0.0 0.04 2.87 7.07
20260906013251 66 7 0.0 0.0 0.30 2.87 7.07
20260906010256 70 7 0.0 0.0 0.30 2.87 7.04
20260906004258 71 7 0.0 0.0 0.38 2.87 6.94
20260906003301 72 7 0.0 0.0 0.38 2.87 6.90
20260906001308 76 7 0.0 0.0 0.38 2.87 6.80
20260906000311 77 7 0.0 0.0 0.38 2.87 6.75
20260905235309 79 318 5.2 10.4 0.42 2.87 6.69
20260905234312 79 332 6.1 8.7 0.42 2.87 6.62
20260905232318 77 297 11.3 7.8 0.42 2.87 6.50
20260905231321 79 307 11.3 13.0 0.42 2.87 6.44
20260905230324 81 301 12.2 13.0 0.42 2.87 6.37
20260905224326 83 8 7.0 9.6 0.42 2.87 6.23
20260905223329 85 323 12.2 10.4 0.42 2.87 6.16
20260905222332 85 314 11.3 10.4 0.42 2.87 6.09
20260905220338 82 134 0.0 0.0 0.42 2.87 5.95
20260905214340 81 134 0.0 0.0 0.49 2.87 5.83